Regional Weather Roundup
Issued by NWS Midland/Odessa, TX

Skip options and go directly to product.
Home | Oldest Version | Next Version | Current Version | All | Text Only | Save Text | Print | Product List | Glossary On

Skip product version selection by date and time.   
946
ASUS44 KMAF 180802
RWRMAF
MIDLAND AREA WEATHER ROUNDUP
NATIONAL WEATHER SERVICE MIDLAND TX
300 AM CDT THU SEP 18 2014

...IN SOUTHWEST TEXAS AND SOUTHEAST NEW MEXICO...

CITY           SKY/WX    TMP DP  RH WIND       PRES   REMARKS
ALPINE         CLOUDY    68  61  79 CALM      30.07F
ANDREWS        FAIR      65  64  94 E6        29.98F
ARTESIA        NOT AVBL
BIG SPRING     CLOUDY    74  71  89 S8        29.97F
CARLSBAD       LGT RAIN  70  32  24 NW7       29.99S
DRYDEN           N/A     78  70  76 N7        29.89S
FORT STOCKTON  CLOUDY    73  67  81 SE9       29.95S
GUAD PASS      HVY RAIN  61  61 100 W16         N/A  VSB 1/2
HOBBS          CLOUDY    66  66 100 SE9       30.02S
MARFA          CLOUDY    64  61  88 CALM      30.07S
MIDLAND AIRPK  CLOUDY    71  71 100 E7        29.97F
MIDLAND INTL   CLOUDY    71  69  93 SE12      29.95F
ODESSA         CLOUDY    71  67  87 SE12      29.97F
PECOS          CLOUDY    75  66  72 NE8       29.92S
PRESIDIO       FAIR      79  64  61 N10       29.91R
SEMINOLE       CLOUDY    68  67  96 CALM      30.00F
SNYDER         CLOUDY    70  68  95 CALM      29.96F
WINK           CLOUDY    73  67  81 E13       29.94S
$$
...OTHER STATIONS IN TEXAS...

CITY           SKY/WX    TMP DP  RH WIND       PRES   REMARKS
ABILENE        CLOUDY    73  68  84 SW3       29.93S
AMARILLO       MOCLDY    66  64  93 W3        30.02F
AUSTIN         TSTM      77  76  96 E10       29.87F FOG
BROWNSVILLE    PTCLDY    78  76  93 S5        29.86F
CORPUS CHRISTI PTCLDY    77  75  93 S5        29.86S
DALLAS FTW     MOCLDY    76  71  85 CALM      29.89R
DEL RIO        PTCLDY    80  71  74 SE8       29.85S
EL PASO        CLOUDY    67  64  90 N15       29.99F
HOUSTON INT    CLOUDY    76  75  97 CALM      29.89F
LUBBOCK        CLOUDY    68  64  87 S12       29.99F
SAN ANGELO     PTCLDY    73  68  84 NE3       29.93F
SAN ANTONIO    CLOUDY    80  75  84 S9        29.89F
WACO           CLOUDY    74  72  93 CALM      29.89S
WICHITA FALLS  NOT AVBL
$$
...OTHER LOCATIONS IN NEW MEXICO...

CITY           SKY/WX    TMP DP  RH WIND       PRES   REMARKS
ALAMAGORDO     CLOUDY    64  64 100 S6        30.04S
ALBUQUERQUE    MOCLDY    63  57  81 CALM      30.09F
CANNON AFB     MOCLDY    64  61  88 SW5       30.06S
CLOVIS           N/A     63  61  94 NW3       30.08R
HOLLOMAN AFB   CLOUDY    67  67 100 SW5       30.02F
ROSWELL        CLOUDY    68  65  90 S5        30.01S
RUIDOSO        CLOUDY    57  57 100 CALM      30.20S
SANTA FE       PTCLDY    51  45  79 N7        30.15F
TRUTH OR CONSE LGT RAIN  64  61  90 NW5       30.06F
TUCUMCARI      PTCLDY    64  60  87 S7        30.04S
$$

USA.gov is the U.S. government's official web portal to all federal, state and local government web resources and services.